EW7239 Weather Reports


Display with metric or nautical units.
time (UTC)temp
F
wind
direction
speed
MPH
gust
MPH
rain 1hr
in
rain 24hr
in
rain mn
in
humidity
%
barometer
mb
20260831034451 78 219 4.0 8.0 0.00 0.00 0.00 67 1011.8
20260831033953 78 221 4.0 8.0 0.00 0.00 0.00 66 1011.6
20260831033450 78 216 5.0 11.0 0.00 0.00 0.00 66 1011.4
20260831032951 79 219 7.0 11.0 0.00 0.00 0.00 65 1011.3
20260831032448 79 221 7.0 12.0 0.00 0.00 0.00 65 1011.2
20260831031947 79 233 6.0 12.0 0.00 0.00 0.00 64 1011.2
20260831031448 79 215 6.0 10.0 0.00 0.00 0.00 64 1011.1
20260831030946 80 215 6.0 11.0 0.00 0.00 0.00 62 1011.0
20260831025944 80 217 7.0 11.0 0.00 0.00 0.00 60 1010.7
20260831025440 80 218 7.0 11.0 0.00 0.00 0.00 60 1010.7
20260831024938 81 230 7.0 12.0 0.00 0.00 0.00 59 1010.7
20260831024438 81 214 6.0 12.0 0.00 0.00 0.00 59 1010.7
20260831023939 82 223 7.0 13.0 0.00 0.00 0.00 57 1010.5
20260831023709 82 227 7.0 13.0 0.00 0.00 0.00 56 1010.5
20260831022933 82 205 8.0 14.0 0.00 0.00 0.00 55 1010.4
20260831022432 83 225 9.0 16.0 0.00 0.00 0.00 55 1010.4
20260831021933 83 221 8.0 16.0 0.00 0.00 0.00 54 1010.3
20260831021432 83 220 8.0 14.0 0.00 0.00 0.00 54 1010.3
20260831020930 84 219 9.0 16.0 0.00 0.00 0.00 53 1010.3
20260831020701 84 216 8.0 16.0 0.00 0.00 0.00 52 1010.3
20260831015929 85 221 8.0 15.0 0.00 0.00 0.00 51 1010.3
20260831015659 85 223 9.0 16.0 0.00 0.00 0.00 51 1010.3
20260831015156 85 221 9.0 16.0 0.00 0.00 0.00 50 1010.3
20260831014427 86 217 8.0 14.0 0.00 0.00 0.00 50 1010.3
20260831013919 86 211 8.0 14.0 0.00 0.00 0.00 49 1010.4
20260831013418 86 215 8.0 14.0 0.00 0.00 0.00 49 1010.4
20260831012918 86 219 9.0 17.0 0.00 0.00 0.00 49 1010.4
20260831012414 87 220 10.0 17.0 0.00 0.00 0.00 48 1010.4
20260831011914 87 221 10.0 14.0 0.00 0.00 0.00 48 1010.3
20260831011414 88 220 10.0 16.0 0.00 0.00 0.00 47 1010.3
20260831010911 88 216 10.0 16.0 0.00 0.00 0.00 47 1010.2
20260831010642 88 217 10.0 17.0 0.00 0.00 0.00 46 1010.2
20260831005909 89 220 10.0 17.0 0.00 0.00 0.00 46 1010.2
20260831005409 89 227 9.0 16.0 0.00 0.00 0.00 46 1010.3
20260831005142 89 232 10.0 16.0 0.00 0.00 0.00 46 1010.3
20260831004410 89 223 10.0 17.0 0.00 0.00 0.00 46 1010.2
20260831003910 89 197 9.0 17.0 0.00 0.00 0.00 46 1010.2
20260831003411 90 225 9.0 15.0 0.00 0.00 0.00 45 1010.2
20260831002910 90 216 10.0 19.0 0.00 0.00 0.00 44 1010.2
20260831002411 90 234 10.0 19.0 0.00 0.00 0.00 45 1010.3
20260831001909 91 231 9.0 17.0 0.00 0.00 0.00 45 1010.2
20260831001409 90 216 9.0 18.0 0.00 0.00 0.00 45 1010.2
20260831000909 90 226 10.0 18.0 0.00 0.00 0.00 45 1010.2
20260831000410 90 264 10.0 16.0 0.00 0.00 0.00 46 1010.2
20260830235909 90 228 11.0 16.0 0.00 0.00 0.00 46 1010.3
20260830235407 91 223 10.0 16.0 0.00 0.00 0.00 46 1010.3
20260830234907 91 221 9.0 16.0 0.00 0.00 0.00 45 1010.2
20260830234408 92 234 8.0 14.0 0.00 0.00 0.00 44 1010.2
20260830233909 92 242 9.0 18.0 0.00 0.00 0.00 44 1010.3
20260830233408 92 220 9.0 18.0 0.00 0.00 0.00 44 1010.3
20260830233140 92 214 9.0 17.0 0.00 0.00 0.00 42 1010.3
20260830232638 92 222 10.0 16.0 0.00 0.00 0.00 43 1010.3
20260830231907 92 217 9.0 16.0 0.00 0.00 0.00 43 1010.4
20260830230907 92 233 9.0 16.0 0.00 0.00 0.00 44 1010.3
20260830230408 93 227 9.0 16.0 0.00 0.00 0.00 43 1010.4
20260830225920 93 230 9.0 15.0 0.00 0.00 0.00 43 1010.4
20260830225408 92 241 10.0 19.0 0.00 0.00 0.00 44 1010.4
20260830224907 92 233 10.0 19.0 0.00 0.00 0.00 44 1010.4
20260830224406 93 211 9.0 15.0 0.00 0.00 0.00 44 1010.5
20260830223908 93 242 9.0 15.0 0.00 0.00 0.00 43 1010.6
20260830223403 92 222 9.0 16.0 0.00 0.00 0.00 46 1010.6
20260830222905 93 239 11.0 17.0 0.00 0.00 0.00 45 1010.6
20260830222402 92 219 11.0 17.0 0.00 0.00 0.00 45 1010.7
20260830221903 92 221 10.0 17.0 0.00 0.00 0.00 45 1010.8
20260830221401 93 205 9.0 17.0 0.00 0.00 0.00 43 1010.8
20260830220902 93 225 10.0 18.0 0.00 0.00 0.00 44 1010.9
20260830220402 93 223 11.0 18.0 0.00 0.00 0.00 44 1011.0
20260830220129 93 221 10.0 16.0 0.00 0.00 0.00 44 1011.0
20260830215357 94 226 10.0 20.0 0.00 0.00 0.00 43 1011.1
20260830214859 94 226 9.0 20.0 0.00 0.00 0.00 41 1011.2
20260830214354 94 232 9.0 18.0 0.00 0.00 0.00 42 1011.2
20260830213854 94 217 9.0 18.0 0.00 0.00 0.00 42 1011.3
20260830213625 94 223 9.0 19.0 0.00 0.00 0.00 42 1011.3
20260830213124 94 225 9.0 19.0 0.00 0.00 0.00 42 1011.3
20260830212351 95 250 9.0 19.0 0.00 0.00 0.00 42 1011.3
20260830211851 96 219 8.0 16.0 0.00 0.00 0.00 40 1011.4
20260830211351 95 237 9.0 16.0 0.00 0.00 0.00 39 1011.4
20260830210852 96 213 8.0 16.0 0.00 0.00 0.00 37 1011.4
20260830210351 96 223 8.0 14.0 0.00 0.00 0.00 37 1011.4
20260830210123 96 219 7.0 14.0 0.00 0.00 0.00 36 1011.5
20260830205352 96 217 7.0 15.0 0.00 0.00 0.00 37 1011.6
20260830204853 96 243 8.0 15.0 0.00 0.00 0.00 37 1011.7
20260830204351 96 229 7.0 12.0 0.00 0.00 0.00 36 1011.6
20260830203851 96 254 7.0 12.0 0.00 0.00 0.00 36 1011.6
20260830203351 96 249 6.0 12.0 0.00 0.00 0.00 37 1011.7
20260830202853 96 268 7.0 12.0 0.00 0.00 0.00 37 1011.7
20260830202351 96 221 7.0 12.0 0.00 0.00 0.00 37 1011.7
20260830201847 96 228 6.0 13.0 0.00 0.00 0.00 39 1011.7
20260830201348 96 225 6.0 13.0 0.00 0.00 0.00 40 1011.7
20260830200616 96 225 5.0 10.0 0.00 0.00 0.00 37 1011.8
20260830200115 96 235 5.0 8.0 0.00 0.00 0.00 37 1011.7
20260830195340 96 200 5.0 11.0 0.00 0.00 0.00 36 1011.7
20260830194839 96 241 5.0 11.0 0.00 0.00 0.00 36 1011.9
20260830194340 95 264 4.0 10.0 0.00 0.00 0.00 35 1011.9
20260830193612 95 235 4.0 9.0 0.00 0.00 0.00 33 1012.0
20260830192839 94 247 5.0 10.0 0.00 0.00 0.00 33 1012.0
20260830192340 94 225 6.0 10.0 0.00 0.00 0.00 34 1012.1
20260830191841 94 203 4.0 9.0 0.00 0.00 0.00 36 1012.1
20260830191338 93 215 3.0 7.0 0.00 0.00 0.00 38 1012.2
20260830190837 93 238 4.0 7.0 0.00 0.00 0.00 38 1012.3
20260830190351 93 237 4.0 7.0 0.00 0.00 0.00 38 1012.3
20260830185839 93 240 2.0 7.0 0.00 0.00 0.00 38 1012.5
20260830185338 92 223 3.0 7.0 0.00 0.00 0.00 38 1012.6
20260830184839 92 220 3.0 7.0 0.00 0.00 0.00 40 1012.6
20260830184338 92 205 3.0 7.0 0.00 0.00 0.00 41 1012.7
20260830183837 91 219 3.0 6.0 0.00 0.00 0.00 41 1012.7
20260830183336 91 219 2.0 6.0 0.00 0.00 0.00 42 1012.7
20260830182837 91 221 4.0 7.0 0.00 0.00 0.00 42 1012.8
20260830182336 90 221 3.0 7.0 0.00 0.00 0.00 44 1012.8
20260830181836 90 223 2.0 6.0 0.00 0.00 0.00 44 1012.8
20260830181337 90 222 3.0 6.0 0.00 0.00 0.00 43 1012.7
20260830180837 90 223 2.0 6.0 0.00 0.00 0.00 44 1012.8
20260830180333 90 225 3.0 6.0 0.00 0.00 0.00 45 1012.7
20260830175835 89 225 2.0 6.0 0.00 0.00 0.00 46 1012.7
20260830175332 89 211 2.0 5.0 0.00 0.00 0.00 47 1012.7
20260830174833 88 211 2.0 6.0 0.00 0.00 0.00 47 1012.8
20260830174329 88 211 2.0 6.0 0.00 0.00 0.00 48 1012.8
20260830173828 87 212 2.0 6.0 0.00 0.00 0.00 49 1012.9
20260830173328 87 212 2.0 6.0 0.00 0.00 0.00 50 1012.9
20260830172829 86 228 3.0 5.0 0.00 0.00 0.00 52 1013.0
20260830172328 86 228 2.0 5.0 0.00 0.00 0.00 52 1012.9
20260830171828 86 230 2.0 5.0 0.00 0.00 0.00 53 1012.8
20260830171556 85 230 2.0 6.0 0.00 0.00 0.00 53 1012.9
20260830170825 85 231 2.0 6.0 0.00 0.00 0.00 54 1012.9
20260830170323 85 231 1.0 5.0 0.00 0.00 0.00 55 1012.9
20260830165824 84 231 2.0 5.0 0.00 0.00 0.00 56 1012.9
20260830165323 84 231 2.0 5.0 0.00 0.00 0.00 58 1012.9
20260830164823 84 231 2.0 4.0 0.00 0.00 0.00 58 1012.9
20260830164321 83 230 1.0 4.0 0.00 0.00 0.00 59 1012.9
20260830164050 83 231 2.0 4.0 0.00 0.00 0.00 60 1013.0
20260830163320 83 230 1.0 4.0 0.00 0.00 0.00 60 1012.9
20260830162817 82 231 1.0 4.0 0.00 0.00 0.00 61 1012.9
20260830162316 82 231 1.0 4.0 0.00 0.00 0.00 63 1012.9
20260830161816 81 231 1.0 4.0 0.00 0.00 0.00 65 1013.0
20260830161328 80 231 2.0 4.0 0.00 0.00 0.00 65 1013.0
20260830160813 80 231 2.0 3.0 0.00 0.00 0.00 66 1013.0
20260830160310 80 231 1.0 4.0 0.00 0.00 0.00 67 1013.0
20260830155810 80 231 1.0 4.0 0.00 0.00 0.00 68 1013.0
20260830155541 79 231 0.0 0.0 0.00 0.00 0.00 68 1013.1
20260830154809 79 231 0.0 0.0 0.00 0.00 0.00 71 1013.2
20260830154308 78 231 0.0 0.0 0.00 0.00 0.00 72 1013.2
20260830153809 77 231 0.0 0.0 0.00 0.00 0.00 74 1013.2
20260830153308 77 231 0.0 0.0 0.00 0.00 0.00 77 1013.2
20260830152806 76 231 0.0 0.0 0.00 0.00 0.00 77 1013.1
20260830152548 75 231 0.0 0.0 0.00 0.00 0.00 78 1013.1
20260830151804 75 231 0.0 0.0 0.00 0.00 0.00 79 1013.1
20260830151259 75 231 0.0 0.0 0.00 0.00 0.00 81 1013.2
20260830150300 74 231 0.0 0.0 0.00 0.00 0.00 81 1013.2
20260830145755 74 231 0.0 0.0 0.00 0.00 0.00 82 1013.3
20260830145523 73 231 0.0 0.0 0.00 0.00 0.00 82 1013.3
20260830144752 73 231 0.0 1.0 0.00 0.00 0.00 82 1013.3
20260830144250 73 231 0.0 1.0 0.00 0.00 0.00 82 1013.2
20260830143748 72 231 0.0 2.0 0.00 0.00 0.00 82 1013.2
20260830143247 72 231 0.0 2.0 0.00 0.00 0.00 82 1013.2
20260830142746 72 231 0.0 1.0 0.00 0.00 0.00 82 1013.2
20260830142245 72 231 0.0 0.0 0.00 0.00 0.00 82 1013.1
20260830141743 72 231 0.0 1.0 0.00 0.00 0.00 82 1013.1
20260830141243 72 231 0.0 1.0 0.00 0.00 0.00 82 1013.1
20260830140741 72 231 0.0 0.0 0.00 0.00 0.00 82 1013.0
20260830140240 72 231 0.0 2.0 0.00 0.00 0.00 82 1013.0
20260830135740 72 231 1.0 2.0 0.00 0.00 0.00 82 1013.0
20260830135239 72 231 1.0 2.0 0.00 0.00 0.00 82 1013.0
20260830134741 72 230 0.0 2.0 0.00 0.00 0.00 82 1012.9
20260830133737 72 231 0.0 2.0 0.00 0.00 0.00 81 1012.8
20260830133237 72 231 0.0 2.0 0.00 0.00 0.00 81 1012.8
20260830132738 72 231 0.0 0.0 0.00 0.00 0.00 81 1012.7
20260830132238 72 231 0.0 0.0 0.00 0.00 0.00 81 1012.7
20260830131751 72 231 0.0 1.0 0.00 0.00 0.00 81 1012.7
20260830131237 72 231 0.0 1.0 0.00 0.00 0.00 81 1012.7
20260830131009 72 231 0.0 0.0 0.00 0.00 0.00 81 1012.6
20260830130237 72 231 0.0 0.0 0.00 0.00 0.00 81 1012.6
20260830125737 72 231 0.0 1.0 0.00 0.00 0.00 79 1012.6
20260830125236 72 231 0.0 1.0 0.00 0.00 0.00 80 1012.6
20260830124734 72 231 0.0 2.0 0.00 0.00 0.00 80 1012.5
20260830124234 72 231 0.0 2.0 0.00 0.00 0.00 80 1012.5
20260830123732 72 231 0.0 2.0 0.00 0.00 0.00 80 1012.3
20260830123229 72 231 0.0 2.0 0.00 0.00 0.00 80 1012.3
20260830122730 72 231 0.0 1.0 0.00 0.00 0.00 80 1012.2
20260830122228 72 231 0.0 1.0 0.00 0.00 0.00 79 1012.1
20260830121727 72 231 0.0 1.0 0.00 0.00 0.00 79 1012.0
20260830121226 72 231 0.0 0.0 0.00 0.00 0.00 78 1012.0
20260830120725 73 230 0.0 0.0 0.00 0.00 0.00 79 1012.0
20260830120238 73 231 0.0 0.0 0.00 0.00 0.00 79 1011.9
20260830115726 73 231 0.0 0.0 0.00 0.00 0.00 79 1012.0
20260830115224 73 231 0.0 0.0 0.00 0.00 0.00 78 1012.0
20260830114723 73 231 0.0 0.0 0.00 0.00 0.00 78 1012.0
20260830114223 73 231 0.0 1.0 0.00 0.00 0.00 78 1011.9
20260830113721 73 231 0.0 1.0 0.00 0.00 0.00 77 1012.0
20260830113219 73 231 0.0 1.0 0.00 0.00 0.00 77 1012.1
20260830112718 73 231 0.0 1.0 0.00 0.00 0.00 77 1012.1
20260830112213 73 230 0.0 2.0 0.00 0.00 0.00 77 1012.0
20260830111715 74 231 1.0 2.0 0.00 0.00 0.00 76 1012.1
20260830111214 74 231 1.0 2.0 0.00 0.00 0.00 76 1012.1
20260830110708 74 231 0.0 3.0 0.00 0.00 0.00 76 1012.0
20260830110205 74 231 1.0 3.0 0.00 0.00 0.00 76 1012.0
20260830105705 74 231 1.0 3.0 0.00 0.00 0.00 76 1012.0
20260830105204 74 231 1.0 3.0 0.00 0.00 0.00 76 1012.0
20260830104702 74 231 1.0 3.0 0.00 0.00 0.00 76 1011.9
20260830104202 74 231 1.0 3.0 0.00 0.00 0.00 76 1011.9
20260830103656 74 231 0.0 3.0 0.00 0.00 0.00 76 1011.9
20260830103154 74 231 0.0 3.0 0.00 0.00 0.00 76 1012.0
20260830102153 74 231 1.0 3.0 0.00 0.00 0.00 75 1011.9
20260830101654 74 231 2.0 4.0 0.00 0.00 0.00 75 1011.9
20260830101154 74 231 1.0 4.0 0.00 0.00 0.00 74 1011.8
20260830100706 74 231 1.0 4.0 0.00 0.00 0.00 74 1011.8
20260830100152 74 231 2.0 4.0 0.00 0.00 0.00 74 1011.7
20260830095149 75 231 3.0 4.0 0.00 0.00 0.00 72 1011.7
20260830094922 75 231 2.0 5.0 0.00 0.00 0.00 72 1011.7
20260830094151 75 231 2.0 5.0 0.00 0.00 0.00 71 1011.7
20260830093645 75 231 2.0 4.0 0.00 0.00 0.00 71 1011.7
20260830093146 75 231 2.0 5.0 0.00 0.00 0.00 71 1011.7
20260830092646 75 231 2.0 5.0 0.00 0.00 0.00 71 1011.7
20260830092145 75 231 3.0 5.0 0.00 0.00 0.00 71 1011.6
20260830091913 75 231 3.0 5.0 0.00 0.00 0.00 72 1011.6
20260830091143 75 231 3.0 5.0 0.00 0.00 0.00 72 1011.6
20260830090913 76 231 3.0 5.0 0.00 0.00 0.00 73 1011.6
20260830090141 76 231 3.0 6.0 0.00 0.00 0.00 73 1011.6
20260830085642 76 231 3.0 6.0 0.00 0.00 0.00 73 1011.5
20260830085138 76 231 3.0 6.0 0.00 0.00 0.00 73 1011.6
20260830084638 76 231 3.0 6.0 0.00 0.00 0.00 73 1011.6
20260830084138 76 231 2.0 5.0 0.00 0.00 0.00 73 1011.7
20260830083636 76 231 3.0 5.0 0.00 0.00 0.00 73 1011.7
20260830083135 76 231 3.0 5.0 0.00 0.00 0.00 73 1011.8
20260830082634 76 231 2.0 5.0 0.00 0.00 0.00 73 1011.8
20260830082133 76 231 2.0 4.0 0.00 0.00 0.00 73 1011.7
20260830081631 76 231 2.0 4.0 0.00 0.00 0.00 73 1011.7
20260830081401 77 231 2.0 4.0 0.00 0.00 0.00 72 1011.7
20260830080631 77 231 2.0 4.0 0.00 0.00 0.00 72 1011.8
20260830080129 77 231 2.0 3.0 0.00 0.00 0.00 72 1011.7
20260830075629 77 231 2.0 4.0 0.00 0.00 0.00 72 1011.8
20260830075129 77 231 2.0 4.0 0.00 0.00 0.00 71 1011.7
20260830074627 77 231 2.0 4.0 0.00 0.00 0.00 71 1011.8
20260830074126 77 231 2.0 3.0 0.00 0.00 0.00 71 1011.8
20260830073619 78 231 1.0 3.0 0.00 0.00 0.00 70 1011.8
20260830073121 78 231 1.0 3.0 0.00 0.00 0.00 70 1011.9
20260830072620 78 231 2.0 4.0 0.00 0.00 0.00 70 1011.9
20260830072119 78 231 2.0 4.0 0.00 0.00 0.00 70 1011.9
20260830071849 78 231 2.0 4.0 0.00 0.00 0.00 70 1011.9
20260830071402 78 231 2.0 4.0 0.00 0.00 0.00 69 1011.7
20260830070612 78 231 2.0 4.0 0.00 0.00 0.00 69 1011.7
20260830070125 78 231 1.0 4.0 0.00 0.00 0.00 69 1011.7
20260830065846 78 231 1.0 3.0 0.00 0.00 0.00 69 1011.7
20260830065111 78 231 2.0 3.0 0.00 0.00 0.00 68 1011.6
20260830064842 78 231 2.0 3.0 0.00 0.00 0.00 68 1011.7
20260830064341 79 231 2.0 4.0 0.00 0.00 0.00 68 1011.7
20260830063853 79 231 2.0 4.0 0.00 0.00 0.00 69 1011.7
20260830063109 78 231 2.0 4.0 0.00 0.00 0.00 69 1011.7
20260830062610 78 231 2.0 3.0 0.00 0.00 0.00 69 1011.7
20260830062110 78 231 2.0 3.0 0.00 0.00 0.00 69 1011.6
20260830061608 79 231 2.0 4.0 0.00 0.00 0.00 68 1011.7
20260830061108 79 231 2.0 4.0 0.00 0.00 0.00 68 1011.8
20260830060606 79 231 2.0 4.0 0.00 0.00 0.00 68 1011.7
20260830060117 79 231 2.0 4.0 0.00 0.00 0.00 68 1011.6
20260830055837 79 231 2.0 4.0 0.00 0.00 0.00 67 1011.6
20260830055333 79 231 2.0 3.0 0.00 0.00 0.00 67 1011.7
20260830054602 79 231 2.0 3.0 0.00 0.00 0.00 67 1011.6
20260830054103 79 231 2.0 4.0 0.00 0.00 0.00 66 1011.7
20260830053601 80 231 2.0 4.0 0.00 0.00 0.00 66 1011.7
20260830053330 80 231 2.0 4.0 0.00 0.00 0.00 66 1011.6
20260830052558 80 231 1.0 4.0 0.00 0.00 0.00 65 1011.6
20260830052056 80 231 1.0 3.0 0.00 0.00 0.00 65 1011.7
20260830051557 80 231 2.0 4.0 0.00 0.00 0.00 64 1011.6
20260830051054 80 231 3.0 5.0 0.00 0.00 0.00 64 1011.5
20260830050551 80 231 3.0 5.0 0.00 0.00 0.00 64 1011.5
20260830050336 80 231 3.0 5.0 0.00 0.00 0.00 63 1011.5
20260830045549 81 231 2.0 4.0 0.00 0.00 0.00 63 1011.5
20260830045048 81 231 3.0 6.0 0.00 0.00 0.00 62 1011.6
20260830044547 81 231 3.0 6.0 0.00 0.00 0.00 62 1011.6
20260830044046 81 231 2.0 5.0 0.00 0.00 0.00 61 1011.5
20260830043547 82 231 3.0 6.0 0.00 0.00 0.00 60 1011.5
20260830043048 82 231 3.0 7.0 0.00 0.00 0.00 60 1011.4
20260830042544 82 231 4.0 7.0 0.00 0.00 0.00 59 1011.4
20260830042045 82 230 4.0 7.0 0.00 0.00 0.00 59 1011.3
20260830041545 83 231 3.0 6.0 0.00 0.00 0.00 58 1011.3
20260830041042 83 231 4.0 8.0 0.00 0.00 0.00 57 1011.2
20260830040543 83 231 4.0 8.0 0.00 0.00 0.00 57 1011.2
20260830040053 83 233 3.0 6.0 0.00 0.00 0.00 56 1011.2
20260830035540 83 234 4.0 6.0 0.00 0.00 0.00 55 1011.1
20260830035041 83 234 4.0 6.0 0.00 0.00 0.00 54 1011.1